{"data":{"norad_id":51771,"intl_designator":"2022-017D","name":"STARLINK-3614","alt_names":[],"object_type":"PAYLOAD","status":"ACTIVE","operator":null,"country":"US","launch_date":"2022-02-25","launch_site_code":"AFWTR","launch_vehicle":null,"mission":null,"orbit_class":"UNKNOWN","rcs_meters":null,"size_class":null,"mass_kg":null,"dimensions":null,"purposes":["comms"],"wikipedia_slug":null,"has_3d_model":false,"image_url":null,"decayed_at":null,"tle_current":{"epoch":"2026-09-20T01:16:02.237088Z","epoch_age_seconds":90904,"freshness":"FRESH","line1":"1 51771U 22017D   26263.05280367  .00001795  00000+0  62358-4 0  9992","line2":"2 51771  53.1601 173.5964 0001409 112.1961 247.9192 15.35394414252124","mean_motion":15.35394414,"eccentricity":0.0001409,"inclination_deg":53.1601,"raan_deg":173.5964,"arg_perigee_deg":112.1961,"mean_anomaly_deg":247.9192,"bstar":6.2358e-5,"rev_number":25212,"period_min":93.786976614596,"perigee_km":458.78576937282,"apogee_km":460.71268571175,"semimajor_km":6837.8862275423,"source":"CELESTRAK","updated_at":"2026-09-20T09:00:39.936317Z"}}}